Terminal Aerodrome Forecast
Issued by NWS Shreveport, LA

Home | Current Version | Previous Version | Text Only | Print | Product List | Glossary On
Versions: 1 2 3 4 5 6 7 8 9 10 11 12 13 14 15 16
678
FTUS44 KSHV 272343
TAFLFK
TAF
KLFK 272343Z 2800/2824 17010KT P6SM FEW060
     FM280300 18007KT P6SM OVC015
     FM280800 18007KT 2SM BR OVC009
     FM281600 18012G20KT P6SM BKN025=

USA.gov is the U.S. government's official web portal to all federal, state and local government web resources and services.